{"data":{"norad_id":60131,"epoch":"2026-09-21T00:12:35.039232Z","epoch_age_seconds":137567,"freshness":"FRESH","line1":"1 60131U 24118U   26264.00873888 -.00000678  00000+0 -10088-4 0  9992","line2":"2 60131  53.1597 197.8504 0001639  74.1243 285.9939 15.31696366125624","mean_motion":15.31696366,"eccentricity":0.0001639,"inclination_deg":53.1597,"raan_deg":197.8504,"arg_perigee_deg":74.1243,"mean_anomaly_deg":285.9939,"bstar":-1.0088e-5,"rev_number":12562,"period_min":94.013411010469,"perigee_km":469.62829529696,"apogee_km":471.87336072698,"semimajor_km":6848.887828012,"source":"CELESTRAK","updated_at":"2026-09-22T09:00:49.158507Z"}}